[[{"header":{"parameterUnit":"m.s-1","parameterCategory":1,"la1":30.2991,"la2":30.254,"lo1":-89.0895,"lo2":-89.0444,"dy":0.0017,"dx":0.0017,"nx":28,"ny":28,"refTime":"2023-10-10T03:00:00:Z","depth":0,"parameterNumber":2,"parameterNumberName":"U-component_of_WINDS"},"data":[0,0,0,0,0,0,0,0,0,0,0,0,0,0,0,0,0,0,0,0,0,0,0,0,0,0,0,0,0,0,0,0,0,0,0,0,0,0,0,0,0,0,0,0,0,0,0,0,0,0,0,0,0,0,0,0,0,0,-2.061,-2.061,0,-2.0669,-2.067,-2.0671,-2.0646,-2.0645,-2.0643,-2.0642,-2.0703,-2.0706,-2.0709,0,0,0,0,0,0,0,0,0,0,0,0,0,-2.0474,-2.0477,-2.0609,-2.061,-2.0611,-2.0669,-2.067,-2.0671,-2.0646,-2.0645,-2.0643,-2.0641,-2.0702,-2.0706,-2.071,0,0,0,0,0,0,0,0,0,0,0,0,0,-2.0533,-2.0477,-2.0609,-2.0606,-2.0606,-2.0669,-2.067,-2.0671,-2.0647,-2.0645,-2.0642,-2.064,-2.0701,-2.0706,-2.071,-2.078,0,0,-2.0724,-2.0726,0,0,0,0,0,0,0,0,-2.053,-2.0538,-2.0606,-2.0606,-2.0607,-2.0648,-2.0645,-2.0708,-2.0647,-2.0631,-2.0642,-2.0639,-2.0687,-2.0692,-2.0708,-2.0783,-2.0786,-2.0724,-2.0727,-2.0729,-2.073,0,0,0,0,0,0,0,-2.0526,-2.0536,-2.0633,-2.0607,-2.0607,-2.0601,-2.0607,-2.0657,-2.067,-2.0632,-2.0631,-2.0638,-2.0687,-2.0704,-2.0709,-2.0787,-2.0724,-2.0728,-2.0731,-2.0732,-2.0922,-2.0924,0,0,0,0,0,0,-2.0522,-2.0532,-2.0631,-2.0635,-2.0562,-2.0605,-2.0612,-2.0637,-2.067,-2.0673,-2.064,-2.0637,-2.0697,-2.0704,-2.0712,-2.0796,-2.0729,-2.0733,-2.0735,-2.0919,-2.0922,-2.0925,0,0,0,0,0,0,-2.0519,-2.0531,-2.0629,-2.0583,-2.0595,-2.061,-2.0638,-2.0639,-2.0656,-2.0675,-2.0678,-2.0655,-2.0696,-2.0705,-2.0763,-2.0798,-2.0735,-2.0739,-2.0917,-2.092,-2.0924,-2.0965,0,0,0,0,0,0,-2.0515,-2.053,-2.0557,-2.0584,-2.0598,-2.068,-2.064,-2.0642,-2.0664,-2.0661,-2.069,-2.0693,-2.0695,-2.0757,-2.0768,-2.0803,-2.0742,-2.0914,-2.0918,-2.0922,-2.0961,-2.0969,-2.0977,0,0,0,0,0,-2.051,-2.0566,-2.0558,-2.057,-2.0632,-2.0682,-2.069,-2.0691,-2.0667,-2.0694,-2.0706,-2.0692,-2.0792,-2.0763,-2.0775,-2.0812,-2.0912,-2.0917,-2.0922,-2.0957,-2.0968,-2.0977,0,0,0,0,0,0,-2.0543,-2.057,-2.0561,-2.0628,-2.0653,-2.0677,-2.0712,-2.0702,-2.0734,-2.073,-2.073,-2.0737,-2.0796,-2.081,-2.0777,-2.0881,-2.0848,-2.0856,-2.087,-2.0881,-2.0889,-2.0885,-2.0746,0,0,0,0,0,-2.0558,-2.0596,-2.0617,-2.0674,-2.0687,-2.0697,-2.0719,-2.0718,-2.0744,-2.0754,-2.077,-2.0796,-2.0833,-2.0858,-2.0893,-2.0962,-2.0968,-2.0993,-2.1002,-2.1008,-2.1015,-2.1053,-2.1064,-2.0942,-2.0942,-2.0942,0,0,-2.0589,-2.0608,-2.0633,-2.0681,-2.07,-2.074,-2.0706,-2.075,-2.0779,-2.0761,-2.0816,-2.0829,-2.0858,-2.0922,-2.0951,-2.0935,-2.105,-2.1015,-2.102,-2.1024,-2.1059,-2.1071,-2.1081,-2.0946,-2.0945,-2.0945,0,0,-2.0666,-2.0685,-2.0734,-2.0754,-2.0783,-2.0789,-2.0801,-2.0827,-2.0835,-2.0891,-2.0878,-2.0913,-2.0977,-2.0998,-2.1017,-2.1101,-2.1089,-2.1112,-2.1156,-2.1192,-2.1202,-2.121,-2.124,-2.1251,-2.1119,-2.1119,-2.1119,0,-2.0702,-2.0761,-2.076,-2.0805,-2.0826,-2.0811,-2.086,-2.088,-2.0919,-2.0934,-2.0916,-2.0995,-2.1014,-2.1082,-2.1103,-2.1119,-2.1132,-2.1109,-2.12,-2.1209,-2.1217,-2.1246,-2.1257,-2.1122,-2.1122,-2.1121,-2.1121,0,-2.0803,-2.0844,-2.088,-2.0918,-2.0944,-2.0991,-2.0997,-2.1023,-2.1019,-2.1027,-2.1084,-2.1105,-2.1144,-2.116,-2.1157,-2.1229,-2.1218,-2.12,-2.1167,-2.1231,-2.1258,-2.1269,-2.1126,-2.1125,-2.1124,-2.1123,0,0,-2.0903,-2.094,-2.0953,-2.097,-2.1001,-2.1033,-2.1078,-2.1116,-2.1139,-2.1166,-2.1205,-2.1259,-2.1242,-2.1264,-2.1263,-2.1295,-2.136,-2.1273,-2.1274,-2.1289,-2.144,-2.1454,-2.1466,-2.1352,-2.1355,-2.1356,-2.1438,0,-2.0983,-2.1063,-2.1064,-2.1138,-2.1176,-2.1161,-2.1201,-2.1225,-2.1233,-2.1267,-2.1276,-2.1315,-2.129,-2.1303,-2.1334,-2.1346,-2.1391,-2.134,-2.1388,-2.139,-2.1382,-2.148,-2.1495,-2.1571,-2.1448,-2.145,-2.1451,0,-2.1087,-2.1117,-2.1195,-2.122,-2.1236,-2.1272,-2.1307,-2.1339,-2.1365,-2.1369,-2.1393,-2.1386,-2.1433,-2.1398,-2.1462,-2.1428,-2.1448,-2.1456,-2.1459,-2.1464,-2.1425,-2.1488,-2.1595,-2.1607,-2.1468,-2.1467,-2.1465,0,-2.1152,-2.1213,-2.1267,-2.1282,-2.1312,-2.1338,-2.1352,-2.1376,-2.1398,-2.1428,-2.1443,-2.1478,-2.1498,-2.1525,-2.1529,-2.1503,-2.1593,-2.1559,-2.1598,-2.1598,-2.1618,-2.1617,-2.173,-2.1631,-2.163,-2.163,-2.163,0,-2.1242,-2.129,-2.1297,-2.1331,-2.1384,-2.1384,-2.1437,-2.1449,-2.147,-2.1505,-2.1494,-2.1528,-2.153,-2.1565,-2.1568,-2.162,-2.1629,-2.1634,-2.1634,-2.1635,-2.1635,-2.1648,-2.1643,-2.1633,-2.1633,-2.1632,-2.1631,0,-2.1325,-2.1331,-2.1389,-2.1413,-2.142,-2.1458,-2.1479,-2.151,-2.1518,-2.1563,-2.1573,-2.1585,-2.1625,-2.1631,-2.1678,-2.168,-2.1743,-2.1738,-2.1734,-2.1734,-2.1773,-2.1769,-2.1899,-2.1916,-2.1805,-2.1806,-2.1807,0,-2.1381,-2.1418,-2.1445,-2.1468,-2.1483,-2.152,-2.1543,-2.1544,-2.1568,-2.16,-2.1628,-2.1667,-2.1698,-2.1762,-2.1775,-2.1811,-2.1806,-2.1849,-2.1812,-2.1811,-2.1807,-2.1805,-2.1809,-2.1857,-2.1858,-2.1859,-2.186,0,-2.1482,-2.1483,-2.1516,-2.1551,-2.1578,-2.1605,-2.1631,-2.165,-2.1654,-2.1682,-2.1722,-2.1747,-2.1794,-2.1833,-2.1868,-2.1882,-2.1872,-2.1871,-2.1882,-2.1884,-2.1881,-2.1883,-2.1755,-2.1869,-2.1868,-2.1867,-2.1867,-2.1866,-2.1553,-2.1585,-2.1609,-2.1647,-2.1666,-2.169,-2.1721,-2.1732,-2.1765,-2.1804,-2.1802,-2.1847,-2.1871,-2.1917,-2.1934,-2.1968,-2.1955,-2.1971,-2.1975,-2.1979,-2.1983,-2.1875,-2.1975,-2.1975,-2.1974,-2.1974,-2.1974,0,-2.1653,-2.1668,-2.1702,-2.1738,-2.1767,-2.1754,-2.1782,-2.1807,-2.1846,-2.187,-2.19,-2.1947,-2.1984,-2.1999,-2.2035,-2.206,-2.2057,-2.207,-2.2068,-2.2072,-2.1993,-2.198,-2.2072,-2.2072,-2.2072,-2.2072,-2.2072,-2.2072,-2.1709,-2.1762,-2.1766,-2.1828,-2.1842,-2.1886,-2.1902,-2.1924,-2.1943,-2.1995,-2.2026,-2.2035,-2.2055,-2.2093,-2.2126,-2.213,-2.2144,-2.216,-2.2161,-2.2087,-2.2077,-2.2068,-2.2056,-2.2162,-2.2163,-2.2237,-2.2238,-2.2238]},{"header":{"parameterUnit":"m.s-1","parameterCategory":1,"la1":30.2991,"la2":30.254,"lo1":-89.0895,"lo2":-89.0444,"dy":0.0017,"dx":0.0017,"nx":28,"ny":28,"refTime":"2023-10-10T03:00:00:Z","depth":0,"parameterNumber":3,"parameterNumberName":"V-component_of_WINDS"},"data":[0,0,0,0,0,0,0,0,0,0,0,0,0,0,0,0,0,0,0,0,0,0,0,0,0,0,0,0,0,0,0,0,0,0,0,0,0,0,0,0,0,0,0,0,0,0,0,0,0,0,0,0,0,0,0,0,0,0,1.7015,1.7015,0,1.7034,1.7034,1.7035,1.6997,1.6996,1.6995,1.6994,1.7012,1.7013,1.7015,0,0,0,0,0,0,0,0,0,0,0,0,0,1.6943,1.6945,1.7015,1.7015,1.7015,1.7034,1.7034,1.7035,1.6998,1.6996,1.6995,1.6993,1.7011,1.7013,1.7015,0,0,0,0,0,0,0,0,0,0,0,0,0,1.6969,1.6945,1.7015,1.6999,1.6998,1.7034,1.7034,1.7035,1.6998,1.6996,1.6994,1.6993,1.701,1.7013,1.7015,1.7067,0,0,1.7023,1.7024,0,0,0,0,0,0,0,0,1.6968,1.6972,1.7001,1.7,1.6999,1.7011,1.7016,1.7045,1.6998,1.6998,1.6994,1.6992,1.7013,1.7015,1.7023,1.7068,1.7068,1.7023,1.7024,1.7025,1.7026,0,0,0,0,0,0,0,1.6966,1.6971,1.7022,1.7002,1.7,1.699,1.6992,1.7021,1.7015,1.6998,1.6995,1.6998,1.7012,1.702,1.7023,1.7069,1.7023,1.7025,1.7026,1.7027,1.7155,1.7157,0,0,0,0,0,0,1.6967,1.697,1.7022,1.7023,1.6979,1.6993,1.6995,1.7009,1.7015,1.7014,1.7,1.6996,1.7017,1.702,1.7023,1.7083,1.7025,1.7028,1.7029,1.7154,1.7156,1.7158,0,0,0,0,0,0,1.6965,1.6972,1.7021,1.6996,1.7001,1.6996,1.7013,1.7011,1.7019,1.7016,1.7015,1.7009,1.7016,1.702,1.7056,1.7083,1.7029,1.7031,1.7151,1.7154,1.7157,1.7203,0,0,0,0,0,0,1.6963,1.6971,1.6992,1.6996,1.7003,1.7054,1.7014,1.7012,1.7024,1.7019,1.7025,1.7024,1.7015,1.7053,1.7058,1.7085,1.7033,1.7149,1.7153,1.7156,1.7199,1.7208,1.7215,0,0,0,0,0,1.6961,1.7004,1.6993,1.6999,1.7028,1.7056,1.7059,1.7048,1.7026,1.7046,1.7044,1.7024,1.7079,1.7057,1.7063,1.7091,1.7147,1.7152,1.7156,1.7196,1.7206,1.7214,0,0,0,0,0,0,1.7002,1.7004,1.6992,1.7038,1.7047,1.705,1.7074,1.7059,1.7074,1.707,1.7054,1.7056,1.7095,1.7097,1.7071,1.714,1.7109,1.7115,1.7138,1.7147,1.7155,1.7153,1.7035,0,0,0,0,0,1.7016,1.704,1.704,1.708,1.7086,1.7079,1.7091,1.7082,1.709,1.7094,1.7094,1.7103,1.7122,1.7135,1.7152,1.72,1.72,1.7222,1.723,1.7236,1.7241,1.7265,1.7274,1.7172,1.7172,1.7172,0,0,1.7046,1.705,1.7066,1.7089,1.7095,1.7118,1.7083,1.7109,1.7126,1.7097,1.7131,1.7132,1.7141,1.7183,1.7201,1.7185,1.7269,1.7241,1.7246,1.7248,1.727,1.728,1.7288,1.7175,1.7175,1.7174,0,0,1.7112,1.7118,1.7152,1.7159,1.7168,1.7164,1.7172,1.7177,1.7176,1.7211,1.7189,1.7209,1.7242,1.7249,1.7256,1.7324,1.7306,1.7331,1.737,1.7393,1.7401,1.7408,1.7431,1.744,1.7336,1.7336,1.7336,0,1.7148,1.7183,1.7171,1.7199,1.7209,1.7185,1.7218,1.7225,1.7239,1.7246,1.7229,1.727,1.7274,1.7316,1.7333,1.734,1.7348,1.7329,1.7401,1.7408,1.7414,1.7436,1.7445,1.7339,1.7338,1.7338,1.7338,0,1.7226,1.725,1.7276,1.7291,1.7304,1.7335,1.7327,1.7341,1.733,1.7327,1.7362,1.7366,1.7383,1.7393,1.7382,1.7433,1.7423,1.7404,1.7372,1.7427,1.7447,1.7455,1.7343,1.7342,1.7341,1.734,0,0,1.7318,1.7325,1.7335,1.7341,1.735,1.7368,1.7397,1.7415,1.7427,1.7438,1.7461,1.7489,1.7471,1.748,1.747,1.7491,1.7543,1.7469,1.7469,1.7481,1.7598,1.7612,1.7622,1.7532,1.7533,1.7535,1.7597,0,1.7382,1.7432,1.7422,1.7471,1.7493,1.747,1.7495,1.7502,1.75,1.7518,1.7515,1.7535,1.751,1.7515,1.7535,1.7533,1.7566,1.7528,1.7552,1.7553,1.7549,1.7632,1.7647,1.7705,1.7605,1.7606,1.7607,0,1.7464,1.7478,1.7529,1.7534,1.7542,1.7565,1.758,1.7597,1.7605,1.7602,1.7612,1.7598,1.7625,1.7594,1.7631,1.7605,1.7614,1.7615,1.7617,1.7617,1.7582,1.7634,1.7724,1.7732,1.762,1.7619,1.7618,0,1.7524,1.7556,1.7591,1.7597,1.7603,1.7619,1.7622,1.7628,1.7639,1.7652,1.7658,1.7674,1.7682,1.7694,1.7685,1.7663,1.7723,1.7691,1.772,1.772,1.7733,1.7732,1.7824,1.7741,1.7741,1.7741,1.774,0,1.7597,1.7629,1.7618,1.7639,1.7673,1.7661,1.7695,1.7696,1.7701,1.7721,1.7702,1.7721,1.7708,1.7725,1.7718,1.7749,1.7753,1.775,1.7748,1.7752,1.7752,1.7756,1.7752,1.7743,1.7742,1.7742,1.7741,0,1.767,1.7664,1.7699,1.7702,1.7704,1.7729,1.7731,1.775,1.7746,1.7772,1.7777,1.7771,1.7791,1.7783,1.7804,1.7799,1.7838,1.7831,1.7836,1.7833,1.7862,1.7859,1.796,1.7972,1.7882,1.7883,1.7884,0,1.7716,1.7739,1.7745,1.7757,1.7762,1.7782,1.7793,1.7781,1.7793,1.7803,1.7821,1.7839,1.7853,1.7885,1.7882,1.7898,1.789,1.7924,1.7892,1.7895,1.7889,1.7887,1.7889,1.793,1.7931,1.7932,1.7933,0,1.7797,1.7793,1.781,1.7826,1.7839,1.7851,1.7861,1.7872,1.7861,1.7875,1.7895,1.7906,1.7927,1.7945,1.7959,1.7961,1.7945,1.7943,1.7951,1.7954,1.7955,1.7954,1.7852,1.7941,1.794,1.7939,1.7939,1.7939,1.7857,1.7877,1.7884,1.7903,1.7909,1.7919,1.7936,1.7935,1.7952,1.7968,1.7961,1.7984,1.799,1.8006,1.8011,1.8028,1.8014,1.8025,1.8028,1.803,1.8034,1.7954,1.8031,1.803,1.803,1.803,1.803,0,1.7937,1.794,1.7958,1.7972,1.7987,1.7972,1.7982,1.7995,1.8015,1.8023,1.8037,1.8059,1.8076,1.8075,1.809,1.8104,1.8097,1.8109,1.8107,1.8107,1.8046,1.8037,1.8114,1.8114,1.8114,1.8114,1.8114,1.8114,1.798,1.8012,1.8009,1.8043,1.8046,1.8069,1.8076,1.8084,1.809,1.8116,1.813,1.8129,1.8133,1.8148,1.8163,1.8162,1.8168,1.8182,1.8178,1.812,1.8112,1.8104,1.8096,1.8184,1.8184,1.8238,1.8239,1.8239]}]]